Change the Weather History Date:

Saturday, October 20, 2012

  Actual Average Record
Temperature  
Mean Temperature 59 °F 58 °F  
Max Temperature 72 °F 70 °F 89 °F (1984)
Min Temperature 45 °F 47 °F 27 °F (1940)
Degree Days  
Heating Degree Days 6 8  
Month to date heating degree days 108 105  
Since 1 July heating degree days 119 134  
Cooling Degree Days 0 1  
Month to date cooling degree days 47 33  
Year to date cooling degree days 1736 1537  
Growing Degree Days 8 (Base 50)    
Moisture  
Dew Point 42 °F    
Average Humidity 64    
Maximum Humidity 92    
Minimum Humidity 35    
Precipitation  
Precipitation 0.00 in 0.09 in 4.76 in (1961)
Month to date precipitation 1.25 1.91  
Year to date precipitation 30.67 36.03  
Snow  
Snow 0.00 in 0.00 in 0.00 in (2002)
Month to date snowfall 0.0 0.0  
Since 1 July snowfall 0.0 0.0  
Snow Depth 0.00 in    
Sea Level Pressure  
Sea Level Pressure 29.81 in    
Wind  
Wind Speed 5 mph (WNW)    
Max Wind Speed 14 mph    
Max Gust Speed 18 mph    
Visibility 10 miles    
Events      
T = Trace of Precipitation, MM = Missing Value Source: NWS Daily Summary

Daily Weather History Graph

Daily Weather History Graph

Search for Another Location

Airport or City:

Trip Planner

Search our weather history database for the weather conditions in past years. The results will help you decide how hot, cold, wet, or windy it might be!

Date:

Astronomy

Oct. 20, 2012 Rise Set
Actual Time 7:22 AM EDT 6:24 PM EDT
Civil Twilight 6:56 AM EDT 6:51 PM EDT
Nautical Twilight 6:25 AM EDT 7:21 PM EDT
Astronomical Twilight 5:55 AM EDT 7:51 PM EDT
Moon 12:53 PM EDT (10/20) 11:11 PM EDT (10/20)
Length of Visible Light 11h 55m
Length of Day
11h 02m
Waxing Crescent, 34% of the Moon is Illuminated
Oct 20
Waxing Crescent
Oct 21
First Quarter
Oct 29
Full
Nov 6
Last Quarter
Nov 13
New

Hourly Weather History & Observations

Time (EDT) Temp. Dew Point Humidity Pressure Visibility Wind Dir Wind Speed Gust Speed Precip Events Conditions
12:54 AM 54.0 °F 42.1 °F 64% 29.74 in 10.0 mi SSW 4.6 mph - N/A   Clear
1:54 AM 53.1 °F 42.1 °F 66% 29.73 in 10.0 mi SSE 3.5 mph - N/A   Clear
2:54 AM 52.0 °F 42.1 °F 69% 29.72 in 10.0 mi South 4.6 mph - N/A   Clear
3:54 AM 52.0 °F 41.0 °F 66% 29.74 in 10.0 mi Calm Calm - N/A   Clear
4:54 AM 48.0 °F 42.1 °F 80% 29.75 in 10.0 mi Calm Calm - N/A   Clear
5:54 AM 46.0 °F 42.1 °F 86% 29.76 in 10.0 mi Calm Calm - N/A   Clear
6:54 AM 46.9 °F 42.1 °F 83% 29.78 in 10.0 mi Calm Calm - N/A   Clear
7:54 AM 45.0 °F 42.1 °F 90% 29.79 in 10.0 mi Calm Calm - N/A   Scattered Clouds
8:54 AM 54.0 °F 45.0 °F 72% 29.81 in 10.0 mi NNE 5.8 mph - N/A   Scattered Clouds
9:54 AM 59.0 °F 44.1 °F 58% 29.83 in 10.0 mi NW 5.8 mph - N/A   Partly Cloudy
10:54 AM 63.0 °F 44.1 °F 50% 29.83 in 10.0 mi Calm Calm - N/A   Partly Cloudy
11:54 AM 66.9 °F 43.0 °F 42% 29.82 in 10.0 mi NNW 5.8 mph - N/A   Clear
12:54 PM 69.1 °F 42.1 °F 38% 29.81 in 10.0 mi Variable 5.8 mph - N/A   Clear
1:54 PM 70.0 °F 42.1 °F 36% 29.79 in 10.0 mi West 9.2 mph - N/A   Partly Cloudy
2:54 PM 71.1 °F 42.1 °F 35% 29.78 in 10.0 mi West 12.7 mph 17.3 mph N/A   Scattered Clouds
3:54 PM 71.1 °F 42.1 °F 35% 29.78 in 10.0 mi WNW 8.1 mph - N/A   Scattered Clouds
4:54 PM 70.0 °F 42.1 °F 36% 29.80 in 10.0 mi WSW 10.4 mph - N/A   Mostly Cloudy
5:54 PM 68.0 °F 42.1 °F 39% 29.82 in 10.0 mi West 10.4 mph - N/A   Mostly Cloudy
6:54 PM 64.0 °F 43.0 °F 46% 29.85 in 10.0 mi West 6.9 mph - N/A   Scattered Clouds
7:54 PM 62.1 °F 41.0 °F 46% 29.88 in 10.0 mi WNW 5.8 mph - N/A   Mostly Cloudy
8:54 PM 60.1 °F 39.0 °F 46% 29.90 in 10.0 mi WNW 4.6 mph - N/A   Mostly Cloudy
9:54 PM 57.9 °F 39.9 °F 51% 29.92 in 10.0 mi NW 10.4 mph - N/A   Mostly Cloudy
10:54 PM 57.0 °F 39.0 °F 51% 29.94 in 10.0 mi NNW 6.9 mph - N/A   Mostly Cloudy
11:54 PM 55.0 °F 39.0 °F 55% 29.95 in 10.0 mi NW 4.6 mph - N/A   Overcast